Location: Conflandey
(47.7287°N, 6.0456°E)
Time: 02:37:55
(UTC+00:00)

Cosmos 1825 - Pass Details

Date: 24 October 2021
Orbit: 501 x 504 km, 82.5° (Epoch: 05 December)

Event Time Altitude Azimuth Distance (km) Brightness Sun altitude
Rises 17:55:28 0° 1° (N) 2,610 5.7 -14.8°
Reaches altitude 10° 17:57:54 10° 16° (NNE) 1,721 4.7 -15.2°
Enters shadow 17:59:49 20° 43° (NE) 1,198 3.6 -15.5°
